Time,TemperatureF,DewpointF,PressureIn,WindDirection,WindDirectionDegrees,WindSpeedMPH,WindSpeedGustMPH,Humidity,HourlyPrecipIn,Conditions,Clouds,dailyrainin,SoftwareType,DateUTC
2013-03-30 00:02:00,53.0,43.0,29.86,ESE,110,3.0,9.0,68,73.13,,,-99.99,,2013-03-30 05:02:00,
2013-03-30 00:12:00,53.0,43.0,29.86,ESE,110,3.0,9.0,68,73.13,,,-99.99,,2013-03-30 05:12:00,
2013-03-30 00:22:00,53.0,43.0,29.85,ESE,113,2.0,7.0,69,73.13,,,-99.99,,2013-03-30 05:22:00,
2013-03-30 00:32:00,52.0,43.0,29.83,ESE,107,3.0,8.0,70,73.13,,,-99.99,,2013-03-30 05:32:00,
2013-03-30 00:42:00,52.0,43.0,29.83,ESE,107,3.0,8.0,70,73.13,,,-99.99,,2013-03-30 05:42:00,
2013-03-30 00:52:00,52.0,43.0,29.83,ESE,104,3.0,6.0,72,73.13,,,-99.99,,2013-03-30 05:52:00,
2013-03-30 01:02:00,52.0,43.0,29.84,East,100,2.0,7.0,72,73.13,,,-99.99,,2013-03-30 06:02:00,
2013-03-30 01:11:00,52.0,43.0,29.84,East,100,2.0,7.0,72,73.13,,,-99.99,,2013-03-30 06:11:00,
2013-03-30 01:22:00,52.0,44.0,29.83,East,96,3.0,7.0,73,73.13,,,-99.99,,2013-03-30 06:22:00,
2013-03-30 01:32:00,51.0,43.0,29.83,East,98,3.0,5.0,74,73.13,,,-99.99,,2013-03-30 06:32:00,
2013-03-30 01:42:00,51.0,43.0,29.83,East,98,3.0,5.0,74,73.13,,,-99.99,,2013-03-30 06:42:00,
2013-03-30 01:52:00,51.0,44.0,29.83,East,86,3.0,5.0,76,73.13,,,-99.99,,2013-03-30 06:52:00,
2013-03-30 02:02:00,51.0,44.0,29.84,East,98,3.0,5.0,77,73.13,,,-99.99,,2013-03-30 07:02:00,
2013-03-30 02:12:00,51.0,44.0,29.84,East,98,3.0,5.0,77,73.13,,,-99.99,,2013-03-30 07:12:00,
2013-03-30 02:22:00,51.0,44.0,29.84,ESE,104,3.0,5.0,78,73.13,,,-99.99,,2013-03-30 07:22:00,
2013-03-30 02:32:00,50.0,44.0,29.83,East,86,4.0,6.0,79,73.13,,,-99.99,,2013-03-30 07:32:00,
2013-03-30 02:42:00,50.0,44.0,29.83,East,86,4.0,6.0,79,73.13,,,-99.99,,2013-03-30 07:42:00,
2013-03-30 02:52:00,51.0,45.0,29.83,ESE,104,3.0,6.0,80,73.13,,,-99.99,,2013-03-30 07:52:00,
2013-03-30 03:02:00,51.0,45.0,29.82,SE,125,5.0,8.0,81,73.13,,,-99.99,,2013-03-30 08:02:00,
2013-03-30 03:12:00,51.0,45.0,29.82,SE,125,5.0,8.0,81,73.13,,,-99.99,,2013-03-30 08:12:00,
2013-03-30 03:21:00,51.0,46.0,29.81,ESE,105,4.0,8.0,82,73.13,,,-99.99,,2013-03-30 08:21:00,
2013-03-30 03:32:00,51.0,46.0,29.81,ESE,117,4.0,7.0,83,73.13,,,-99.99,,2013-03-30 08:32:00,
2013-03-30 03:42:00,51.0,46.0,29.81,ESE,117,4.0,7.0,83,73.13,,,-99.99,,2013-03-30 08:42:00,
2013-03-30 03:53:00,51.0,46.0,29.80,East,91,3.0,5.0,84,73.13,,,-99.99,,2013-03-30 08:53:00,
2013-03-30 04:02:00,50.0,46.0,29.80,East,83,3.0,5.0,85,73.13,,,-99.99,,2013-03-30 09:02:00,
2013-03-30 04:12:00,50.0,46.0,29.79,East,86,3.0,6.0,86,73.13,,,-99.99,,2013-03-30 09:12:00,
2013-03-30 04:22:00,50.0,46.0,29.79,East,86,3.0,6.0,86,73.13,,,-99.99,,2013-03-30 09:22:00,
2013-03-30 04:33:00,50.0,46.0,29.79,East,96,3.0,5.0,87,73.13,,,-99.99,,2013-03-30 09:33:00,
2013-03-30 04:42:00,50.0,46.0,29.79,East,96,3.0,5.0,87,73.13,,,-99.99,,2013-03-30 09:42:00,
2013-03-30 04:53:00,50.0,46.0,29.79,ESE,122,1.0,4.0,87,73.13,,,-99.99,,2013-03-30 09:53:00,
2013-03-30 05:02:00,50.0,47.0,29.77,East,96,2.0,6.0,88,73.13,,,-99.99,,2013-03-30 10:02:00,
2013-03-30 05:12:00,50.0,47.0,29.77,East,96,2.0,6.0,88,73.13,,,-99.99,,2013-03-30 10:12:00,
2013-03-30 05:23:00,50.0,47.0,29.77,East,87,2.0,4.0,90,73.13,,,-99.99,,2013-03-30 10:23:00,
2013-03-30 05:32:00,50.0,47.0,29.76,East,98,3.0,7.0,91,73.13,,,-99.99,,2013-03-30 10:32:00,
2013-03-30 05:42:00,50.0,47.0,29.76,East,98,3.0,7.0,91,73.13,,,-99.99,,2013-03-30 10:42:00,
2013-03-30 05:52:00,50.0,48.0,29.75,SE,124,4.0,9.0,92,73.13,,,-99.99,,2013-03-30 10:52:00,
2013-03-30 06:03:00,50.0,48.0,29.74,ESE,107,5.0,9.0,93,73.13,,,-99.99,,2013-03-30 11:03:00,
2013-03-30 06:12:00,50.0,48.0,29.74,ESE,107,5.0,9.0,93,73.13,,,-99.99,,2013-03-30 11:12:00,
2013-03-30 06:22:00,50.0,48.0,29.74,ESE,103,5.0,8.0,94,73.13,,,-99.99,,2013-03-30 11:22:00,
2013-03-30 06:32:00,50.0,49.0,29.75,ESE,113,3.0,6.0,95,73.13,,,-99.99,,2013-03-30 11:32:00,
2013-03-30 06:42:00,50.0,49.0,29.75,ESE,113,3.0,6.0,95,73.13,,,-99.99,,2013-03-30 11:42:00,
2013-03-30 06:53:00,50.0,49.0,29.74,ESE,110,4.0,8.0,96,73.13,,,-99.99,,2013-03-30 11:53:00,
2013-03-30 07:02:00,51.0,50.0,29.73,East,101,4.0,8.0,96,73.13,,,-99.99,,2013-03-30 12:02:00,
2013-03-30 07:12:00,51.0,50.0,29.73,East,101,4.0,8.0,96,73.13,,,-99.99,,2013-03-30 12:12:00,
2013-03-30 07:22:00,51.0,50.0,29.72,ESE,111,5.0,9.0,96,73.13,,,-99.99,,2013-03-30 12:22:00,
2013-03-30 07:32:00,51.0,50.0,29.71,East,101,5.0,9.0,97,73.13,,,-99.99,,2013-03-30 12:32:00,
2013-03-30 07:42:00,51.0,50.0,29.71,East,101,5.0,9.0,97,73.13,,,-99.99,,2013-03-30 12:42:00,
2013-03-30 07:53:00,51.0,50.0,29.72,SSE,153,5.0,10.0,97,73.13,,,-99.99,,2013-03-30 12:53:00,
2013-03-30 08:02:00,51.0,50.0,29.72,East,91,6.0,12.0,98,73.13,,,-99.99,,2013-03-30 13:02:00,
2013-03-30 08:12:00,51.0,50.0,29.72,East,91,6.0,12.0,98,73.13,,,-99.99,,2013-03-30 13:12:00,
2013-03-30 08:22:00,51.0,51.0,29.71,East,94,6.0,11.0,99,73.13,,,-99.99,,2013-03-30 13:22:00,
2013-03-30 08:32:00,51.0,51.0,29.71,ESE,117,6.0,10.0,100,73.13,,,-99.99,,2013-03-30 13:32:00,
2013-03-30 08:42:00,51.0,51.0,29.71,ESE,117,6.0,10.0,100,73.13,,,-99.99,,2013-03-30 13:42:00,
2013-03-30 08:52:00,51.0,51.0,29.71,SE,134,6.0,9.0,100,73.13,,,-99.99,,2013-03-30 13:52:00,
2013-03-30 09:02:00,51.0,51.0,29.70,SE,136,4.0,10.0,100,73.13,,,-99.99,,2013-03-30 14:02:00,
2013-03-30 09:11:00,51.0,51.0,29.70,SE,136,4.0,10.0,100,73.13,,,-99.99,,2013-03-30 14:11:00,
2013-03-30 09:22:00,51.0,51.0,29.69,SE,127,5.0,10.0,100,73.13,,,-99.99,,2013-03-30 14:22:00,
2013-03-30 09:32:00,51.0,51.0,29.70,SE,145,5.0,10.0,100,73.13,,,-99.99,,2013-03-30 14:32:00,
2013-03-30 09:42:00,51.0,51.0,29.70,SE,145,5.0,10.0,100,73.13,,,-99.99,,2013-03-30 14:42:00,
2013-03-30 09:52:00,51.0,51.0,29.70,SE,145,6.0,9.0,100,73.13,,,-99.99,,2013-03-30 14:52:00,
2013-03-30 10:02:00,51.0,51.0,29.70,SSE,155,3.0,6.0,100,73.13,,,-99.99,,2013-03-30 15:02:00,
2013-03-30 10:12:00,51.0,51.0,29.70,SSE,155,3.0,6.0,100,73.13,,,-99.99,,2013-03-30 15:12:00,
2013-03-30 10:22:00,51.0,51.0,29.70,SE,142,3.0,5.0,100,73.13,,,-99.99,,2013-03-30 15:22:00,
2013-03-30 10:33:00,51.0,51.0,29.70,SE,139,3.0,6.0,100,73.13,,,-99.99,,2013-03-30 15:33:00,
2013-03-30 10:43:00,51.0,51.0,29.70,SE,139,3.0,6.0,100,73.13,,,-99.99,,2013-03-30 15:43:00,
2013-03-30 10:53:00,51.0,51.0,29.70,SSE,163,3.0,5.0,100,73.13,,,-99.99,,2013-03-30 15:53:00,
2013-03-30 11:03:00,51.0,51.0,29.71,ESE,118,2.0,6.0,100,73.13,,,-99.99,,2013-03-30 16:03:00,
2013-03-30 11:13:00,51.0,51.0,29.71,North,0,0.0,0.0,100,73.13,,,-99.99,,2013-03-30 16:13:00,
2013-03-30 11:23:00,51.0,51.0,29.71,North,0,0.0,0.0,100,73.13,,,-99.99,,2013-03-30 16:23:00,
2013-03-30 11:33:00,51.0,51.0,29.71,East,83,3.0,5.0,100,73.13,,,-99.99,,2013-03-30 16:33:00,
2013-03-30 11:43:00,51.0,51.0,29.71,East,83,3.0,5.0,100,73.13,,,-99.99,,2013-03-30 16:43:00,
2013-03-30 11:52:00,51.0,51.0,29.71,East,79,3.0,6.0,100,73.13,,,-99.99,,2013-03-30 16:52:00,
2013-03-30 12:02:00,51.0,51.0,29.72,NE,48,3.0,6.0,100,73.13,,,-99.99,,2013-03-30 17:02:00,
2013-03-30 12:13:00,51.0,51.0,29.72,NE,48,3.0,6.0,100,73.13,,,-99.99,,2013-03-30 17:13:00,
2013-03-30 12:22:00,51.0,51.0,29.73,ENE,75,1.0,3.0,100,73.13,,,-99.99,,2013-03-30 17:22:00,
2013-03-30 12:32:00,51.0,51.0,29.72,East,84,1.0,4.0,100,73.13,,,-99.99,,2013-03-30 17:32:00,
2013-03-30 12:42:00,51.0,51.0,29.72,East,84,1.0,4.0,100,73.13,,,-99.99,,2013-03-30 17:42:00,
2013-03-30 12:52:00,51.0,51.0,29.72,ENE,69,1.0,4.0,100,73.13,,,-99.99,,2013-03-30 17:52:00,
2013-03-30 13:02:00,51.0,51.0,29.70,ESE,103,3.0,6.0,100,73.13,,,-99.99,,2013-03-30 18:02:00,
2013-03-30 13:12:00,52.0,52.0,29.70,NE,49,1.0,4.0,100,73.13,,,-99.99,,2013-03-30 18:12:00,
2013-03-30 13:22:00,52.0,52.0,29.70,NE,49,1.0,4.0,100,73.13,,,-99.99,,2013-03-30 18:22:00,
2013-03-30 13:32:00,53.0,53.0,29.70,East,83,1.0,4.0,100,73.13,,,-99.99,,2013-03-30 18:32:00,
2013-03-30 13:42:00,53.0,53.0,29.70,East,83,1.0,4.0,100,73.13,,,-99.99,,2013-03-30 18:42:00,
2013-03-30 13:53:00,53.0,53.0,29.70,East,98,2.0,4.0,100,73.13,,,-99.99,,2013-03-30 18:53:00,
2013-03-30 14:02:00,54.0,54.0,29.68,East,100,2.0,6.0,100,73.13,,,-99.99,,2013-03-30 19:02:00,
2013-03-30 14:13:00,54.0,54.0,29.68,East,100,2.0,6.0,100,73.13,,,-99.99,,2013-03-30 19:13:00,
2013-03-30 14:22:00,54.0,54.0,29.68,SE,134,3.0,5.0,100,73.13,,,-99.99,,2013-03-30 19:22:00,
2013-03-30 14:32:00,56.0,56.0,29.67,SE,125,2.0,5.0,100,73.13,,,-99.99,,2013-03-30 19:32:00,
2013-03-30 14:42:00,56.0,56.0,29.67,SE,125,2.0,5.0,100,73.13,,,-99.99,,2013-03-30 19:42:00,
2013-03-30 14:53:00,57.0,57.0,29.66,SSE,155,4.0,8.0,100,73.13,,,-99.99,,2013-03-30 19:53:00,
2013-03-30 15:02:00,58.0,58.0,29.65,SE,146,1.0,5.0,100,73.13,,,-99.99,,2013-03-30 20:02:00,
2013-03-30 15:12:00,58.0,58.0,29.65,SE,146,1.0,5.0,100,73.13,,,-99.99,,2013-03-30 20:12:00,
2013-03-30 15:32:00,60.0,59.0,29.64,South,170,2.0,6.0,96,73.13,,,-99.99,,2013-03-30 20:32:00,
2013-03-30 15:42:00,60.0,59.0,29.64,South,170,2.0,6.0,96,73.13,,,-99.99,,2013-03-30 20:42:00,
2013-03-30 15:53:00,61.0,60.0,29.64,West,267,1.0,3.0,95,73.13,,,-99.99,,2013-03-30 20:53:00,
2013-03-30 16:02:00,62.0,60.0,29.63,North,0,0.0,0.0,93,73.13,,,-99.99,,2013-03-30 21:02:00,
2013-03-30 16:12:00,62.0,60.0,29.63,North,0,0.0,0.0,93,73.13,,,-99.99,,2013-03-30 21:12:00,
2013-03-30 16:22:00,63.0,60.0,29.63,North,0,0.0,0.0,89,73.13,,,-99.99,,2013-03-30 21:22:00,
2013-03-30 16:33:00,62.0,58.0,29.63,West,266,0.0,3.0,87,73.13,,,-99.99,,2013-03-30 21:33:00,
2013-03-30 16:43:00,62.0,58.0,29.63,West,266,0.0,3.0,87,73.13,,,-99.99,,2013-03-30 21:43:00,
2013-03-30 16:53:00,63.0,58.0,29.63,WNW,287,0.0,2.0,85,73.13,,,-99.99,,2013-03-30 21:53:00,
2013-03-30 17:02:00,63.0,58.0,29.63,NW,305,2.0,5.0,83,73.13,,,-99.99,,2013-03-30 22:02:00,
2013-03-30 17:13:00,63.0,58.0,29.63,NW,305,2.0,5.0,83,73.13,,,-99.99,,2013-03-30 22:13:00,
2013-03-30 17:23:00,61.0,58.0,29.62,NE,38,6.0,9.0,91,73.13,,,-99.99,,2013-03-30 22:23:00,
2013-03-30 17:32:00,60.0,58.0,29.63,North,0,3.0,6.0,92,73.13,,,-99.99,,2013-03-30 22:32:00,
2013-03-30 17:43:00,60.0,58.0,29.63,North,0,3.0,6.0,92,73.13,,,-99.99,,2013-03-30 22:43:00,
2013-03-30 17:53:00,60.0,58.0,29.62,NE,38,5.0,8.0,93,73.13,,,-99.99,,2013-03-30 22:53:00,
2013-03-30 18:02:00,60.0,58.0,29.63,NNE,25,5.0,8.0,92,73.13,,,-99.99,,2013-03-30 23:02:00,
2013-03-30 18:12:00,60.0,58.0,29.63,NNE,25,5.0,8.0,92,73.13,,,-99.99,,2013-03-30 23:12:00,
2013-03-30 18:22:00,61.0,59.0,29.62,NE,35,3.0,6.0,92,73.13,,,-99.99,,2013-03-30 23:22:00,
2013-03-30 18:32:00,60.0,58.0,29.62,NE,46,4.0,8.0,92,73.13,,,-99.99,,2013-03-30 23:32:00,
2013-03-30 18:42:00,60.0,58.0,29.62,NE,46,4.0,8.0,92,73.13,,,-99.99,,2013-03-30 23:42:00,
2013-03-30 18:53:00,60.0,59.0,29.62,NE,51,4.0,7.0,95,73.13,,,-99.99,,2013-03-30 23:53:00,
2013-03-30 19:02:00,59.0,58.0,29.63,ENE,66,3.0,6.0,96,73.13,,,-99.99,,2013-03-31 00:02:00,
2013-03-30 19:12:00,59.0,58.0,29.63,ENE,66,3.0,6.0,96,73.13,,,-99.99,,2013-03-31 00:12:00,
2013-03-30 19:22:00,58.0,57.0,29.63,East,86,3.0,8.0,97,73.13,,,-99.99,,2013-03-31 00:22:00,
2013-03-30 19:32:00,58.0,57.0,29.63,East,83,2.0,5.0,98,73.13,,,-99.99,,2013-03-31 00:32:00,
2013-03-30 19:42:00,58.0,57.0,29.63,East,83,2.0,5.0,98,73.13,,,-99.99,,2013-03-31 00:42:00,
2013-03-30 19:53:00,58.0,57.0,29.63,ENE,59,2.0,5.0,98,73.13,,,-99.99,,2013-03-31 00:53:00,
2013-03-30 20:02:00,57.0,56.0,29.64,North,0,0.0,0.0,98,73.13,,,-99.99,,2013-03-31 01:02:00,
2013-03-30 20:12:00,57.0,56.0,29.64,North,0,0.0,0.0,98,73.13,,,-99.99,,2013-03-31 01:12:00,
2013-03-30 20:22:00,57.0,57.0,29.64,North,0,0.0,0.0,99,73.13,,,-99.99,,2013-03-31 01:22:00,
2013-03-30 20:32:00,56.0,56.0,29.64,North,0,0.0,0.0,100,73.13,,,-99.99,,2013-03-31 01:32:00,
2013-03-30 20:42:00,56.0,56.0,29.64,North,0,0.0,0.0,100,73.13,,,-99.99,,2013-03-31 01:42:00,
2013-03-30 20:53:00,56.0,56.0,29.65,ESE,120,0.0,4.0,100,73.13,,,-99.99,,2013-03-31 01:53:00,
2013-03-30 21:02:00,55.0,55.0,29.65,SE,135,1.0,3.0,100,73.13,,,-99.99,,2013-03-31 02:02:00,
2013-03-30 21:12:00,55.0,55.0,29.65,SE,135,1.0,3.0,100,73.13,,,-99.99,,2013-03-31 02:12:00,
2013-03-30 21:22:00,55.0,55.0,29.66,North,0,0.0,0.0,100,73.13,,,-99.99,,2013-03-31 02:22:00,
2013-03-30 21:32:00,55.0,55.0,29.66,North,0,0.0,0.0,100,73.13,,,-99.99,,2013-03-31 02:32:00,
2013-03-30 21:42:00,55.0,55.0,29.66,North,0,0.0,0.0,100,73.13,,,-99.99,,2013-03-31 02:42:00,
2013-03-30 21:52:00,55.0,55.0,29.66,ESE,105,1.0,3.0,100,73.13,,,-99.99,,2013-03-31 02:52:00,
2013-03-30 22:02:00,54.0,54.0,29.66,East,98,1.0,4.0,100,73.13,,,-99.99,,2013-03-31 03:02:00,
2013-03-30 22:12:00,54.0,54.0,29.66,East,98,1.0,4.0,100,73.13,,,-99.99,,2013-03-31 03:12:00,
2013-03-30 22:22:00,54.0,54.0,29.66,ESE,107,1.0,3.0,100,73.13,,,-99.99,,2013-03-31 03:22:00,
2013-03-30 22:33:00,54.0,54.0,29.67,North,0,0.0,0.0,100,73.13,,,-99.99,,2013-03-31 03:33:00,
2013-03-30 22:43:00,54.0,54.0,29.67,North,0,0.0,0.0,100,73.13,,,-99.99,,2013-03-31 03:43:00,
2013-03-30 22:54:00,53.0,53.0,29.67,North,0,0.0,0.0,100,73.13,,,-99.99,,2013-03-31 03:54:00,
2013-03-30 23:02:00,53.0,-99.9,29.67,North,0,0.0,0.0,100,73.13,,,-99.99,,2013-03-31 04:02:00,
2013-03-30 23:13:00,53.0,53.0,29.67,North,0,0.0,0.0,100,73.13,,,-99.99,,2013-03-31 04:13:00,
2013-03-30 23:23:00,52.0,52.0,29.67,North,0,0.0,0.0,100,73.13,,,-99.99,,2013-03-31 04:23:00,
2013-03-30 23:42:00,52.0,52.0,29.67,North,0,0.0,0.0,100,73.13,,,-99.99,,2013-03-31 04:42:00,
2013-03-30 23:52:00,52.0,52.0,29.67,North,0,0.0,0.0,100,73.13,,,-99.99,,2013-03-31 04:52:00,